SCP
0 0 0 0 0 0 0 0 0 0 0 0 0 0 0 0 0 0 0 0 0 0 0 0 0 0 0 0 0 0 0 0 0 0 0 0 -0 -0 0 0 -0 -0 -0
0 -0 0 0 0 0 0 0 0 0 0 0 0 0 0 0 0 0 0 0 0 0 0 0 0 0 0 0 0 0 0 0 0 0 0 0 0 0 -0 -0 -0 -0 -0
0 0 0 0 0 0 0 0 0 0 0 0 0 0 0 0 0 0 0 0 0 0 0 0 0 0 0 0 0 0 0 0 0 0 0 0 0 0 0 -0 -0 -0 -0
0 0 0 0 0 0 0 0 0 0 0 0 0 0 0 0 0 0 0 0 0 0 0 0 0 0 0 0 0 0 0 0 0 0 0 0 0 0 0 0 -0 -0 -0
0 0 0 0 0 0 0 0 0 0 0 0 0 0 0 0 0 0 0 0 0 0 0 0 0 0 0 -0 0 -0 -0 -0 0 0 0 0 0 0 0 0 0 -0 -0
0 0 0 0 0 0 0 0 0 0 0 0 0 0 0 0 0 0 0 0 0 0 0 0 0 0 0 -0 -0 -0 -0 -0 0 0 0 0 0 0 0 0 0 -0 -0
0 0 0 0 0 0 0 0 0 0 0 0 0 0 0 0 0 0 0 0 0 0 0 0 0 0 0 -0 -0 -0 -0 -0 -0 -0 -0 0 0 0 0 -0 -0 0 0
0 0 0 0 0 0 0 0 0 0 0 0 0 0 0 0 0 0 0 0 0 0 0 0 0 0 0 0 0 -0 -0 -0 -0 -0 0 0 0 0 0 0 -0 -0 0
0 0 0 0 0 0 0 0 0 0 0 0 0 0 0 0 0 0 0 0 0 0 0 0 0 0 0 0 0 -0 -0 -0 -0 -0 -0 0 0 0 0 0 0 0 0
0 0 0 0 0 0 0 0 0 0 0 0 0 0 0 0 0 0 0 0 0 0 0 0 0 0 0 0 0 0 0 0 -0 -0 -0 0 0 0 0 0 0 0 0
0 0 0 0 0 0 0 0 0 0 0 0 0 0 0 0 0 0 0 0 0 0 0 0 0 0 0 0 0 0 0 0 0 -0 0 0 0 0 -0 0 0 0 0
0 0 0 0 0 0 0 0 0 0 0 0 0 0 0 0 0 0 0 0 0 0 0 0 0 0 0 0 0 0 0 0 0 0 0 0 0 0 -0 0 0 0 0
0 -0 0 0 0 0 0 0 0 0 0 0 0 0 0 0 0 0 0 0 0 0 0 0 0 0 0 0 0 0 0 0 0 0 0 0 0 0 0 0 0 0 -0
-0 0 0 0 0 0 0 0 0 0 0 0 0 0 0 0 0 0 0 0 0 0 0 0 0 0 0 0 0 0 0 0 0 0 0 0 0 -0 -0 -0 -0 -0 -0
0 -0 0 0 0 0 0 0 0 0 0 0 0 0 0 0 0 0 0 0 0 0 0 0 0 0 0 0 0 0 0 0 0 0 0 0 0 0 -0 0 -0 -0 -0
-0 -0 0 0 0 0 0 0 0 0 0 0 0 0 0 0 0 0 0 0 0 0 0 0 0 0 0 0 0 0 0 0 0 0 0 0 0 0 -0 -0 -0 -0 -0
0 -0 0 0 0 0 0 0 0 0 0 0 0 0 0 0 0 0 0 0 0 0 0 0 0 0 0 0 0 0 0 0 0 0 0 0 0 0 0 0 0 0 0
0 -0 0 0 0 0 0 0 0 0 0 0 0 0 0 0 0 0 0 0 0 0 0 0 0 0 0 0 0 0 0 0 0 0 0 0 0 0 0 0 0 0 0
-0 0 -0 0 0 0 0 0 0 0 0 0 0 0 0 0 0 0 0 0 0 0 0 0 0 0 0 0 0 0 0 0 0 0 0 0 0 0 0 0 0 0 0
0 -0 0 0 0 0 0 0 0 0 0 0 0 0 0 0 0 0 0 0 0 0 0 0 0 0 0 0 0 0 0 0 0 0 0 0 0 0 0 0 0 0 0
0 -0 -0 0 0 0 0 0 0 0 0 0 0 0 0 0 0 0 0 0 0 0 0 0 0 0 0 0 0 0 0 0 0 0 0 0 0 0 0 0 0 0 0
0 -0 -0 0 0 0 0 0 0 0 0 0 0 0 0 0 0 0 0 0 0 0 0 0 0 0 0 0 0 0 0 0 0 0 0 0 0 0 0 0 0 0 0
0 0 -0 -0 0 0 0 0 0 0 0 0 0 0 0 0 0 0 0 0 0 0 0 0 0 0 0 0 0 0 0 0 0 0 0 0 0 0 0 0 0 0 0
-0 -0 0 0 0 0 0 0 0 0 0 0 0 0 0 0 0 0 0 0 0 0 0 0 0 0 0 0 0 0 0 0 0 0 0 0 0 0 0 0 0 0 0
-0 -0 -0 0 0 0 0 0 0 0 0 0 0 0 0 0 0 0 0 0 0 0 0 0 0 0 0 0 0 0 0 0 0 0 0 0 0 0 0 0 0 0 0
-0 -0 -0 -0 0 0 0 0 0 0 0 0 0 0 0 0 0 0 0 0 0 0 0 0 0 0 0 0 0 0 0 0 0 0 0 0 0 0 0 0 0 0 0
Wind_Speed_500mb
89 87 79 66 54 55 70 78 81 82 75 73 66 62 62 54 50 44 39 36 34 33 31 29 27 32 37 37 39 43 44 47 46 50 51 44 37 40 42 41 40 53 56
74 82 77 74 63 53 59 73 80 83 82 84 76 69 69 60 51 47 44 41 39 37 36 33 30 35 44 44 45 49 52 51 47 49 50 39 40 36 38 40 43 53 54
68 72 69 75 71 64 54 62 77 82 82 88 83 76 65 63 60 59 53 49 45 42 40 37 34 36 43 47 47 48 49 53 48 32 30 26 23 51 49 35 53 55 57
74 74 70 76 74 73 63 60 72 87 88 92 91 87 79 82 78 67 61 55 50 47 45 43 40 37 41 48 51 51 44 46 47 47 29 25 61 38 46 64 64 56 54
78 86 88 80 68 73 71 69 70 83 95 94 94 92 87 80 76 71 65 59 56 52 50 49 47 44 42 49 53 52 52 49 41 43 27 55 51 55 68 61 65 56 51
89 85 82 77 73 65 64 68 68 79 93 98 96 95 92 88 82 77 74 68 64 60 57 55 54 51 48 50 48 46 49 50 44 30 46 56 67 69 77 72 63 59 47
74 84 86 87 85 67 59 64 72 79 87 98 99 96 95 92 84 82 78 77 75 71 67 64 64 61 57 52 46 46 45 45 44 35 54 46 54 68 72 71 64 62 49
95 87 101 102 94 77 66 64 72 77 79 91 101 97 95 96 88 85 80 81 78 74 70 67 66 65 63 58 51 47 43 42 45 42 55 48 39 63 63 70 66 57 47
88 95 103 100 97 76 65 65 65 77 82 83 87 100 101 100 97 89 83 82 80 76 72 70 67 68 67 64 58 51 45 43 44 45 55 52 42 57 54 55 55 56 47
107 107 103 91 96 77 64 58 65 74 80 86 87 92 100 105 96 96 91 86 83 80 75 74 70 70 70 68 66 60 52 47 46 48 58 60 56 52 49 53 51 41 43
97 90 84 89 76 74 64 64 68 69 80 86 92 92 97 100 102 102 94 88 86 83 79 77 74 72 72 70 69 64 57 52 50 50 59 65 63 58 56 53 52 39 35
80 80 81 81 73 62 58 60 69 82 86 86 94 99 97 99 102 104 98 93 89 86 82 79 76 75 74 73 70 66 62 56 51 52 59 64 64 64 60 58 50 48 34
89 78 86 78 75 63 57 59 62 79 89 91 96 98 101 103 102 104 100 95 88 90 85 83 81 79 77 76 73 67 63 57 52 52 53 57 64 68 65 59 57 53 39
85 91 93 79 72 67 59 58 54 63 83 94 94 98 103 106 101 100 100 96 90 91 92 87 84 82 78 76 75 71 67 61 57 54 51 54 58 65 69 63 65 52 45
93 95 92 84 76 64 60 56 42 52 78 90 88 96 98 99 97 97 101 98 93 89 93 90 88 83 81 80 79 75 71 66 61 57 53 53 54 60 66 67 67 57 48
82 96 95 91 77 58 51 60 35 46 71 79 84 88 93 94 97 95 100 98 93 88 94 96 90 89 85 82 79 76 74 69 65 60 54 52 54 58 62 65 57 49 44
82 92 90 86 79 56 48 51 31 40 63 69 77 89 94 92 93 92 94 97 94 90 92 96 94 90 87 83 79 78 75 72 67 62 55 55 55 62 63 68 60 50 42
88 90 97 98 78 52 41 35 21 30 54 65 75 85 88 88 86 86 90 92 91 92 91 97 95 90 90 84 81 79 76 72 68 63 57 55 59 66 71 73 68 58 44
94 83 86 91 86 58 36 25 20 25 47 60 70 76 80 80 82 81 84 88 89 90 91 94 96 92 90 85 82 81 80 76 72 66 60 58 61 68 73 71 68 59 48
83 81 88 93 96 70 35 20 18 12 36 49 61 63 71 71 73 69 81 83 84 86 87 91 95 92 90 86 84 83 82 80 75 69 63 61 63 69 74 71 66 58 49
60 82 72 83 95 86 52 24 11 9 11 44 47 53 60 61 62 68 74 74 80 82 83 89 93 91 89 86 84 85 86 84 80 76 72 68 67 67 73 71 67 52 42
61 63 80 82 83 90 79 46 19 7 11 32 40 50 53 56 58 62 62 65 74 80 81 86 90 90 87 85 84 85 83 81 80 79 76 71 71 69 71 72 68 52 47
62 56 55 73 79 82 89 77 39 8 13 19 43 40 44 55 58 60 66 64 72 79 83 87 93 93 89 84 81 84 81 78 77 76 73 68 71 71 68 68 66 63 55
55 52 52 69 81 78 81 84 63 16 6 16 14 48 50 58 63 63 65 67 75 82 85 89 93 94 91 87 85 84 79 74 74 70 66 67 69 73 74 74 71 70 67
49 47 47 47 61 73 76 81 81 49 10 6 22 28 30 34 51 58 61 68 69 75 82 86 92 95 94 92 89 91 88 82 78 75 71 72 74 78 80 78 78 75 72
43 45 44 45 46 46 62 70 76 73 45 13 10 26 32 32 44 48 51 55 61 59 61 64 78 86 81 84 86 85 83 83 80 77 76 78 81 81 81 81 80 80 78
Wind_Direction_500mb
286 283 282 282 281 268 254 249 244 241 236 230 228 223 218 215 215 211 212 210 203 196 191 188 180 174 172 164 154 142 140 131 127 119 106 107 110 103 104 103 97 105 105
296 288 281 277 275 276 261 247 243 242 237 232 235 230 222 216 217 215 211 210 206 201 196 192 185 177 176 172 165 155 145 144 141 121 112 105 107 114 115 113 112 110 109
308 308 298 282 278 273 268 252 242 241 237 232 232 231 225 222 217 214 212 209 207 203 199 194 190 183 182 179 170 160 156 152 150 135 136 127 130 117 131 126 124 118 114
329 324 314 305 290 275 270 264 252 240 236 232 231 230 230 220 217 215 212 208 207 204 201 198 193 189 186 183 172 166 168 160 155 145 156 157 139 133 117 121 125 124 117
325 321 317 317 303 291 272 267 252 241 235 233 232 232 230 231 224 216 215 211 209 205 201 200 196 193 186 183 180 176 166 170 165 163 161 152 150 140 131 120 127 126 121
321 324 323 320 306 300 280 264 252 241 235 234 232 231 231 231 224 219 214 212 210 207 202 202 200 195 190 185 184 183 181 178 175 169 166 164 155 152 142 135 131 127 126
329 324 329 332 314 298 288 266 249 241 236 234 232 231 231 233 229 224 217 212 210 208 205 201 201 198 197 195 193 192 192 190 178 177 173 174 177 168 160 152 145 135 136
319 317 316 320 327 301 288 274 254 241 229 233 233 231 231 232 230 228 222 220 216 214 208 205 203 202 200 200 202 202 200 199 192 185 180 185 188 187 177 167 163 148 147
318 314 316 315 317 312 284 275 258 246 237 233 235 233 230 231 228 227 224 224 220 218 213 209 206 202 203 204 204 206 207 206 201 191 190 192 194 189 187 179 175 171 157
311 307 310 307 312 308 287 267 258 253 245 236 236 235 233 230 230 228 223 222 221 219 215 212 207 205 204 205 207 210 210 210 207 201 196 197 201 203 206 191 187 191 179
306 300 307 311 309 301 288 262 252 248 243 239 234 231 233 231 228 228 224 223 223 218 215 214 210 207 206 206 208 210 210 212 213 208 202 202 204 205 203 209 201 203 198
318 307 315 317 316 305 294 274 255 241 240 239 232 230 230 230 226 226 224 220 222 218 215 214 212 209 207 207 207 207 209 211 212 206 203 203 204 207 205 204 208 208 205
336 324 318 322 322 316 304 290 264 244 234 231 228 224 225 227 226 224 223 219 219 217 214 213 213 211 209 208 208 208 208 208 209 202 204 204 205 204 199 202 209 213 214
336 333 325 315 321 321 315 304 271 240 225 223 215 213 218 224 224 221 221 218 217 215 213 212 212 212 210 209 208 207 207 207 207 206 209 206 204 203 197 202 212 212 214
340 332 324 321 324 322 322 318 277 225 218 215 209 209 212 219 221 220 219 218 216 214 213 212 212 212 211 210 208 207 207 205 205 207 209 211 212 208 200 198 205 204 204
333 335 331 331 327 323 323 325 287 218 217 210 209 208 208 211 219 219 217 216 215 212 211 212 212 210 210 210 209 207 206 205 205 206 207 210 209 203 198 198 207 205 211
325 337 331 330 333 326 324 326 305 216 211 206 206 208 210 208 215 217 215 213 213 211 211 211 211 211 211 209 208 207 208 207 206 207 208 207 203 199 197 196 203 213 216
329 331 345 345 342 332 324 317 308 221 206 207 208 210 211 211 209 215 213 212 211 211 210 209 210 210 211 209 207 207 207 208 207 207 208 209 200 195 193 195 199 208 211
341 336 351 349 351 347 333 313 321 216 205 208 210 212 213 212 209 210 210 210 210 209 211 209 207 209 211 209 207 206 206 207 207 207 207 208 203 197 193 196 201 207 204
338 346 349 2 1 359 352 342 323 294 214 211 212 213 213 215 216 215 207 208 209 211 211 209 208 209 209 208 206 206 206 206 205 205 206 206 203 199 196 199 199 198 200
335 345 355 5 3 4 5 4 352 314 209 205 214 213 213 214 215 211 206 208 207 210 210 209 207 207 209 207 206 206 208 207 205 204 203 202 200 201 199 197 198 201 204
336 345 353 3 3 7 12 9 6 309 225 201 212 214 211 210 210 210 209 207 207 207 208 207 207 206 207 207 206 208 209 209 208 205 204 202 200 201 203 204 205 209 207
341 343 347 358 2 11 12 12 4 355 220 207 216 214 210 209 207 207 204 204 207 208 206 206 206 205 206 204 205 207 208 209 210 211 208 205 204 204 204 208 210 206 207
342 340 346 0 359 5 14 10 13 11 229 190 218 213 206 210 211 210 210 207 207 208 209 206 206 205 204 200 199 204 207 207 208 211 208 207 207 207 209 208 210 214 212
340 348 350 358 356 1 2 14 12 20 30 205 209 209 203 208 210 211 212 212 214 214 211 210 208 204 203 200 200 201 202 203 203 204 204 203 205 206 208 211 213 213 212
338 346 351 352 357 355 1 7 16 16 22 26 213 209 207 214 213 210 211 216 217 216 217 220 216 209 208 203 202 204 205 204 203 202 203 205 206 210 210 210 211 214 213
Wind_Speed_850mb
89 87 79 66 54 55 70 78 81 82 75 73 66 62 62 54 50 44 39 36 34 33 31 29 27 32 37 37 39 43 44 47 46 50 51 44 37 40 42 41 40 53 56
74 82 77 74 63 53 59 73 80 83 82 84 76 69 69 60 51 47 44 41 39 37 36 33 30 35 44 44 45 49 52 51 47 49 50 39 40 36 38 40 43 53 54
68 72 69 75 71 64 54 62 77 82 82 88 83 76 65 63 60 59 53 49 45 42 40 37 34 36 43 47 47 48 49 53 48 32 30 26 23 51 49 35 53 55 57
74 74 70 76 74 73 63 60 72 87 88 92 91 87 79 82 78 67 61 55 50 47 45 43 40 37 41 48 51 51 44 46 47 47 29 25 61 38 46 64 64 56 54
78 86 88 80 68 73 71 69 70 83 95 94 94 92 87 80 76 71 65 59 56 52 50 49 47 44 42 49 53 52 52 49 41 43 27 55 51 55 68 61 65 56 51
89 85 82 77 73 65 64 68 68 79 93 98 96 95 92 88 82 77 74 68 64 60 57 55 54 51 48 50 48 46 49 50 44 30 46 56 67 69 77 72 63 59 47
74 84 86 87 85 67 59 64 72 79 87 98 99 96 95 92 84 82 78 77 75 71 67 64 64 61 57 52 46 46 45 45 44 35 54 46 54 68 72 71 64 62 49
95 87 101 102 94 77 66 64 72 77 79 91 101 97 95 96 88 85 80 81 78 74 70 67 66 65 63 58 51 47 43 42 45 42 55 48 39 63 63 70 66 57 47
88 95 103 100 97 76 65 65 65 77 82 83 87 100 101 100 97 89 83 82 80 76 72 70 67 68 67 64 58 51 45 43 44 45 55 52 42 57 54 55 55 56 47
107 107 103 91 96 77 64 58 65 74 80 86 87 92 100 105 96 96 91 86 83 80 75 74 70 70 70 68 66 60 52 47 46 48 58 60 56 52 49 53 51 41 43
97 90 84 89 76 74 64 64 68 69 80 86 92 92 97 100 102 102 94 88 86 83 79 77 74 72 72 70 69 64 57 52 50 50 59 65 63 58 56 53 52 39 35
80 80 81 81 73 62 58 60 69 82 86 86 94 99 97 99 102 104 98 93 89 86 82 79 76 75 74 73 70 66 62 56 51 52 59 64 64 64 60 58 50 48 34
89 78 86 78 75 63 57 59 62 79 89 91 96 98 101 103 102 104 100 95 88 90 85 83 81 79 77 76 73 67 63 57 52 52 53 57 64 68 65 59 57 53 39
85 91 93 79 72 67 59 58 54 63 83 94 94 98 103 106 101 100 100 96 90 91 92 87 84 82 78 76 75 71 67 61 57 54 51 54 58 65 69 63 65 52 45
93 95 92 84 76 64 60 56 42 52 78 90 88 96 98 99 97 97 101 98 93 89 93 90 88 83 81 80 79 75 71 66 61 57 53 53 54 60 66 67 67 57 48
82 96 95 91 77 58 51 60 35 46 71 79 84 88 93 94 97 95 100 98 93 88 94 96 90 89 85 82 79 76 74 69 65 60 54 52 54 58 62 65 57 49 44
82 92 90 86 79 56 48 51 31 40 63 69 77 89 94 92 93 92 94 97 94 90 92 96 94 90 87 83 79 78 75 72 67 62 55 55 55 62 63 68 60 50 42
88 90 97 98 78 52 41 35 21 30 54 65 75 85 88 88 86 86 90 92 91 92 91 97 95 90 90 84 81 79 76 72 68 63 57 55 59 66 71 73 68 58 44
94 83 86 91 86 58 36 25 20 25 47 60 70 76 80 80 82 81 84 88 89 90 91 94 96 92 90 85 82 81 80 76 72 66 60 58 61 68 73 71 68 59 48
83 81 88 93 96 70 35 20 18 12 36 49 61 63 71 71 73 69 81 83 84 86 87 91 95 92 90 86 84 83 82 80 75 69 63 61 63 69 74 71 66 58 49
60 82 72 83 95 86 52 24 11 9 11 44 47 53 60 61 62 68 74 74 80 82 83 89 93 91 89 86 84 85 86 84 80 76 72 68 67 67 73 71 67 52 42
61 63 80 82 83 90 79 46 19 7 11 32 40 50 53 56 58 62 62 65 74 80 81 86 90 90 87 85 84 85 83 81 80 79 76 71 71 69 71 72 68 52 47
62 56 55 73 79 82 89 77 39 8 13 19 43 40 44 55 58 60 66 64 72 79 83 87 93 93 89 84 81 84 81 78 77 76 73 68 71 71 68 68 66 63 55
55 52 52 69 81 78 81 84 63 16 6 16 14 48 50 58 63 63 65 67 75 82 85 89 93 94 91 87 85 84 79 74 74 70 66 67 69 73 74 74 71 70 67
49 47 47 47 61 73 76 81 81 49 10 6 22 28 30 34 51 58 61 68 69 75 82 86 92 95 94 92 89 91 88 82 78 75 71 72 74 78 80 78 78 75 72
43 45 44 45 46 46 62 70 76 73 45 13 10 26 32 32 44 48 51 55 61 59 61 64 78 86 81 84 86 85 83 83 80 77 76 78 81 81 81 81 80 80 78
Wind_Direction_850mb
286 283 282 282 281 268 254 249 244 241 236 230 228 223 218 215 215 211 212 210 203 196 191 188 180 174 172 164 154 142 140 131 127 119 106 107 110 103 104 103 97 105 105
296 288 281 277 275 276 261 247 243 242 237 232 235 230 222 216 217 215 211 210 206 201 196 192 185 177 176 172 165 155 145 144 141 121 112 105 107 114 115 113 112 110 109
308 308 298 282 278 273 268 252 242 241 237 232 232 231 225 222 217 214 212 209 207 203 199 194 190 183 182 179 170 160 156 152 150 135 136 127 130 117 131 126 124 118 114
329 324 314 305 290 275 270 264 252 240 236 232 231 230 230 220 217 215 212 208 207 204 201 198 193 189 186 183 172 166 168 160 155 145 156 157 139 133 117 121 125 124 117
325 321 317 317 303 291 272 267 252 241 235 233 232 232 230 231 224 216 215 211 209 205 201 200 196 193 186 183 180 176 166 170 165 163 161 152 150 140 131 120 127 126 121
321 324 323 320 306 300 280 264 252 241 235 234 232 231 231 231 224 219 214 212 210 207 202 202 200 195 190 185 184 183 181 178 175 169 166 164 155 152 142 135 131 127 126
329 324 329 332 314 298 288 266 249 241 236 234 232 231 231 233 229 224 217 212 210 208 205 201 201 198 197 195 193 192 192 190 178 177 173 174 177 168 160 152 145 135 136
319 317 316 320 327 301 288 274 254 241 229 233 233 231 231 232 230 228 222 220 216 214 208 205 203 202 200 200 202 202 200 199 192 185 180 185 188 187 177 167 163 148 147
318 314 316 315 317 312 284 275 258 246 237 233 235 233 230 231 228 227 224 224 220 218 213 209 206 202 203 204 204 206 207 206 201 191 190 192 194 189 187 179 175 171 157
311 307 310 307 312 308 287 267 258 253 245 236 236 235 233 230 230 228 223 222 221 219 215 212 207 205 204 205 207 210 210 210 207 201 196 197 201 203 206 191 187 191 179
306 300 307 311 309 301 288 262 252 248 243 239 234 231 233 231 228 228 224 223 223 218 215 214 210 207 206 206 208 210 210 212 213 208 202 202 204 205 203 209 201 203 198
318 307 315 317 316 305 294 274 255 241 240 239 232 230 230 230 226 226 224 220 222 218 215 214 212 209 207 207 207 207 209 211 212 206 203 203 204 207 205 204 208 208 205
336 324 318 322 322 316 304 290 264 244 234 231 228 224 225 227 226 224 223 219 219 217 214 213 213 211 209 208 208 208 208 208 209 202 204 204 205 204 199 202 209 213 214
336 333 325 315 321 321 315 304 271 240 225 223 215 213 218 224 224 221 221 218 217 215 213 212 212 212 210 209 208 207 207 207 207 206 209 206 204 203 197 202 212 212 214
340 332 324 321 324 322 322 318 277 225 218 215 209 209 212 219 221 220 219 218 216 214 213 212 212 212 211 210 208 207 207 205 205 207 209 211 212 208 200 198 205 204 204
333 335 331 331 327 323 323 325 287 218 217 210 209 208 208 211 219 219 217 216 215 212 211 212 212 210 210 210 209 207 206 205 205 206 207 210 209 203 198 198 207 205 211
325 337 331 330 333 326 324 326 305 216 211 206 206 208 210 208 215 217 215 213 213 211 211 211 211 211 211 209 208 207 208 207 206 207 208 207 203 199 197 196 203 213 216
329 331 345 345 342 332 324 317 308 221 206 207 208 210 211 211 209 215 213 212 211 211 210 209 210 210 211 209 207 207 207 208 207 207 208 209 200 195 193 195 199 208 211
341 336 351 349 351 347 333 313 321 216 205 208 210 212 213 212 209 210 210 210 210 209 211 209 207 209 211 209 207 206 206 207 207 207 207 208 203 197 193 196 201 207 204
338 346 349 2 1 359 352 342 323 294 214 211 212 213 213 215 216 215 207 208 209 211 211 209 208 209 209 208 206 206 206 206 205 205 206 206 203 199 196 199 199 198 200
335 345 355 5 3 4 5 4 352 314 209 205 214 213 213 214 215 211 206 208 207 210 210 209 207 207 209 207 206 206 208 207 205 204 203 202 200 201 199 197 198 201 204
336 345 353 3 3 7 12 9 6 309 225 201 212 214 211 210 210 210 209 207 207 207 208 207 207 206 207 207 206 208 209 209 208 205 204 202 200 201 203 204 205 209 207
341 343 347 358 2 11 12 12 4 355 220 207 216 214 210 209 207 207 204 204 207 208 206 206 206 205 206 204 205 207 208 209 210 211 208 205 204 204 204 208 210 206 207
342 340 346 0 359 5 14 10 13 11 229 190 218 213 206 210 211 210 210 207 207 208 209 206 206 205 204 200 199 204 207 207 208 211 208 207 207 207 209 208 210 214 212
340 348 350 358 356 1 2 14 12 20 30 205 209 209 203 208 210 211 212 212 214 214 211 210 208 204 203 200 200 201 202 203 203 204 204 203 205 206 208 211 213 213 212
338 346 351 352 357 355 1 7 16 16 22 26 213 209 207 214 213 210 211 216 217 216 217 220 216 209 208 203 202 204 205 204 203 202 203 205 206 210 210 210 211 214 213